STARLINK-32625, 62154

Orbit data source: Space-Track

STARLINK-32625, 62154 is a payload satellite owned by SpaceX/Seattle (US) in LEO that was launched on Sat, 30 Nov 2024 UTC via an FALCON 9 launch vehicle from the Air Force Eastern Test Range (AFETR). Payload-class satellites include a variety of spacecraft equipped with specific instruments for various scientific and technological missions. These include communications satellites like Starlink; space stations such as the ISS; scientific satellites like the Hubble; Earth observation satellites from companies like Planet Labs, Umbra, and HawkEye 360; GPS; miniature CubeSats for education and research; and military/defense satellites.

Loading next visibility...
Identifier
62154, 2024-224R
Orbit
LEO
Country
Flag of USUS
Related business
Manufacturer
SpaceX/Seattle
Mission
Operational Commercial Communications
Bus & Motor
STARLINK V2M, Unknown motor
Mass
730 kg wet, ~700 kg dry
Launch date (UTC)
2024-11-30 (1 year ago)
Launch vehicle
FALCON 9
Launch site
Air Force Eastern Test Range (AFETR)
Object type
Payload
Rocket body
Debris
Shape & HBR
Box + 2 Pan, 17.7 m
Radar Cross Section
33.884 m², Large (>1 m²)

Expand to show TLE details & history
Last TLE update: 1 day ago

TLE from 1 day ago
0 STARLINK-32625
1 62154U 24224R   25348.21067219  .00030758  00000-0  11235-2 0  9999
2 62154  43.0036 281.1437 0001562 262.9874  97.0800 15.27554253 59292
Epoch: 2025-12-14T05:03Z
TLE epoch observation values (Epoch: 2025-12-14T05:03:22.077Z)
Latitude
-0.00001°
Longitude
122.17485°
Altitude
483.034 km
Speed
7.626 km/s
True Right ascension
18h 44m 34s
True Declination
0° 00' 00"
Sunlit
Object was in daylight at epoch
Visualization orbit readout
Latitude
Unknown
Longitude
Unknown
Altitude
Unknown
Speed
Unknown
Apparent Right ascension
Unknown
Apparent Declination
Unknown
Sunlit
N/A
Visualization observer readout
Local Sidereal Time
13:18:59
Azimuth
Unknown
Elevation
Unknown
Doppler factor
Unknown
Orbital elements
Apogee altitude
486.143 km
Perigee altitude
483.999 km
Semi-major axis
6,863.208 km
Eccentricity
0.00016
Inclination
43.0036°
RAAN
281.1437°
Arg. of periapsis
262.9874°
True anomaly
97.09776°
Mean anomaly
97.08°
Eccentric anomaly
97.08888°
Mean motion
3.81727 °/min
Orbital period
94.31 mins
BSTAR
0.0011235
Loading maneuver chart data...
Computing Atmospheric mass density...
Loading historical data...
Loading historical data...
Loading historical data...
Loading historical data...
Loading historical data...
Loading historical data...
Loading historical data...

Documentation

Showing up to 5 results
|